Page, AZ

1:51 PM MST on December 06, 2016 (GMT -0700)
Page Municipal

Weather History for KPGA - February, 2014

Change the Weather History Date:

Friday, February 28, 2014

  Actual Average Record
Temperature  
Mean Temperature 46 °F -  
Max Temperature 54 °F 54 °F 70 °F (2016)
Min Temperature 37 °F 33 °F 11 °F (1962)
Degree Days  
Heating Degree Days 20    
Moisture  
Dew Point 30 °F    
Average Humidity 54    
Maximum Humidity 79    
Minimum Humidity 34    
Precipitation  
Precipitation 0.01 in - - ()
Sea Level Pressure  
Sea Level Pressure 29.78 in    
Wind  
Wind Speed 2 mph (North)    
Max Wind Speed 8 mph    
Max Gust Speed -    
Visibility 9 miles    
Events Rain    
Averages and records for this station are not official NWS values.
T = Trace of Precipitation, MM = Missing Value Source: NWS Daily Summary

Daily Weather History Graph

Daily Weather History Graph

Search for Another Location

Airport or City:

Trip Planner

Search our weather history database for the weather conditions in past years. The results will help you decide how hot, cold, wet, or windy it might be!

Date:

Astronomy

Feb. 28, 2014 Rise Set
Actual Time 6:57 AM MST 6:19 PM MST
Civil Twilight 6:31 AM MST 6:45 PM MST
Nautical Twilight 6:01 AM MST 7:15 PM MST
Astronomical Twilight 5:31 AM MST 7:45 PM MST
Moon 6:14 AM MST (2/28) 5:59 PM MST (2/28)
Length of Visible Light 12h 13m
Length of Day
11h 21m
Waning Crescent, 0% of the Moon is Illuminated
Feb 28
Waning Crescent
Mar 1
New
Mar 8
First Quarter
Mar 16
Full
Mar 23
Last Quarter

Hourly Weather History & Observations

Time (MST) Temp. Windchill Dew Point Humidity Pressure Visibility Wind Dir Wind Speed Gust Speed Precip Events Conditions
12:53 AM 44.1 °F 41.5 °F 26.1 °F 49% 29.78 in 10.0 mi SSE 4.6 mph - N/A   Clear
1:53 AM 41.0 °F 39.0 °F 25.0 °F 53% 29.80 in 10.0 mi ESE 3.5 mph - N/A   Clear
2:53 AM 41.0 °F 38.0 °F 28.0 °F 60% 29.83 in 10.0 mi West 4.6 mph - N/A   Clear
3:53 AM 39.0 °F - 27.0 °F 62% 29.83 in 10.0 mi Calm Calm - N/A   Clear
4:53 AM 39.0 °F - 27.0 °F 62% 29.81 in 8.0 mi Calm Calm - N/A   Clear
5:53 AM 39.0 °F - 25.0 °F 57% 29.82 in 10.0 mi Calm Calm - N/A   Clear
6:53 AM 39.9 °F - 25.0 °F 55% 29.83 in 10.0 mi Calm Calm - N/A   Clear
7:53 AM 41.0 °F - 26.1 °F 55% 29.86 in 2.5 mi Calm Calm - N/A   Haze
8:09 AM 41.0 °F - 26.1 °F 55% 29.92 in 5.0 mi Calm Calm - N/A   Haze
8:53 AM 43.0 °F - 28.0 °F 56% 29.86 in 10.0 mi Calm Calm - N/A   Mostly Cloudy
9:53 AM 43.0 °F - 30.9 °F 62% 29.85 in 10.0 mi Calm Calm - N/A   Mostly Cloudy
10:53 AM 45.0 °F - 28.9 °F 53% 29.87 in 10.0 mi Calm Calm - N/A   Overcast
11:53 AM 48.0 °F - 30.0 °F 50% 29.85 in 10.0 mi North 5.8 mph - N/A   Overcast
12:53 PM 48.0 °F - 27.0 °F 44% 29.83 in 10.0 mi NNW 4.6 mph - 0.00 in   Overcast
1:53 PM 50.0 °F - 30.9 °F 48% 29.81 in 9.0 mi WNW 3.5 mph - 0.01 in Rain Light Rain
2:53 PM 51.1 °F - 30.9 °F 46% 29.80 in 10.0 mi NNE 4.6 mph - 0.00 in   Overcast
3:53 PM 54.0 °F - 30.9 °F 41% 29.76 in 10.0 mi NE 8.1 mph - N/A   Overcast
4:53 PM 53.1 °F - 33.1 °F 47% 29.74 in 10.0 mi Calm Calm - N/A   Partly Cloudy
5:53 PM 52.0 °F - 34.0 °F 50% 29.71 in 10.0 mi NW 5.8 mph - N/A   Scattered Clouds
6:53 PM 50.0 °F - 35.1 °F 57% 29.71 in 10.0 mi Calm Calm - N/A   Scattered Clouds
7:53 PM 48.9 °F - 35.1 °F 59% 29.69 in 8.0 mi Calm Calm - N/A   Partly Cloudy
8:53 PM 48.0 °F - 35.1 °F 61% 29.68 in 10.0 mi Calm Calm - N/A   Clear
9:53 PM 46.9 °F - 34.0 °F 61% 29.67 in 10.0 mi Calm Calm - N/A   Clear
10:53 PM 46.9 °F - 37.0 °F 68% 29.64 in 10.0 mi Calm Calm - 0.00 in   Overcast
11:53 PM 46.0 °F 44.8 °F 39.9 °F 79% 29.61 in 10.0 mi NNE 3.5 mph - 0.01 in Rain Light Rain